Waarnemingen

Advertentie
Mijn weer
A12-CPP, Nederland (6205): temperatuur & dauwpunt: 14.10.2018 15:00:00 - 20.10.2018 15:00:00 (CEST)A12-CPP, Nederland (6205): windsnelheid & windstoten: 14.10.2018 15:00:00 - 20.10.2018 15:00:00 (CEST)A12-CPP, Nederland (6205): windrichting: 14.10.2018 15:00:00 - 20.10.2018 15:00:00 (CEST)A12-CPP, Nederland (6205): luchtdruk: 14.10.2018 15:00:00 - 20.10.2018 15:00:00 (CEST)A12-CPP, Nederland (6205): zicht: 14.10.2018 15:00:00 - 20.10.2018 15:00:00 (CEST)
Datum & Tijd tt [°C] td [°C] ff [km/u] ff [kn] fx [km/u] fx [kn] dd ppp [hPa] vv [km]
20.10.2018 15:00:00 12,7 10,5 22 12 25 14 ZW 1027,9 10
20.10.2018 14:00:00 12,5 9,7 22 12 25 14 WZW 1028,8 10
20.10.2018 13:00:00 12,4 9,2 22 12 22 12 WZW 1028,4 10
20.10.2018 12:00:00 12,1 9,5 22 12 25 14 WZW 1028,6 10
20.10.2018 11:00:00 12,2 9,4 21 11 22 12 WZW 1028,5 10
20.10.2018 10:00:00 12,1 9,3 18 10 18 10 WZW 1028,3 10
20.10.2018 09:00:00 11,9 9,5 13 7 14 8 W 1027,9 10
20.10.2018 08:00:00 12,0 9,6 8 4 11 6 WNW 1027,4 10
20.10.2018 07:00:00 11,9 9,5 13 7 18 10 NNW 1026,7 10
20.10.2018 06:00:00 12,0 9,6 15 8 18 10 NW 1026,5 10
20.10.2018 05:00:00 12,0 9,5 22 12 25 14 NNW 1026,3 10
20.10.2018 04:00:00 12,2 9,9 26 14 29 16 NW 1026,1 10
20.10.2018 03:00:00 12,4 9,9 35 19 32 18 NW 1026,1 10
20.10.2018 02:00:00 12,5 10,0 29 16 29 16 WNW 1025,2 10
20.10.2018 01:00:00 12,7 9,8 29 16 32 18 W 1025,0 10
20.10.2018 00:00:00 12,5 9,3 26 14 36 19 W 1025,0 10
19.10.2018 23:00:00 12,4 8,7 34 18 32 18 WZW 1025,3 10
19.10.2018 22:00:00 12,1 8,3 34 18 36 19 WZW 1024,8 10
19.10.2018 21:00:00 12,0 7,8 35 19 36 19 WZW 1024,7 10
19.10.2018 20:00:00 11,9 7,2 37 20 40 21 WZW 1024,3 10
19.10.2018 19:00:00 12,0 8,1 34 18 40 21 WZW 1024,0 10
19.10.2018 18:00:00 12,0 8,9 26 14 36 19 WZW 1023,6 10
19.10.2018 17:00:00 13,2 8,3 34 18 32 18 Z 1023,3 10
19.10.2018 16:00:00 13,1 7,5 31 17 32 18 Z 1023,7 10
19.10.2018 15:00:00 12,5 6,1 31 17 32 18 Z 1024,2 10
19.10.2018 14:00:00 12,4 6,0 28 15 29 16 - 1024,8 10
19.10.2018 13:00:00 12,4 5,9 18 10 29 16 Z 1025,5 10
19.10.2018 12:00:00 12,3 5,6 22 12 25 14 ZZW 1025,8 10
19.10.2018 11:00:00 11,9 6,0 22 12 25 14 ZZW 1025,9 10
19.10.2018 10:00:00 11,6 4,9 22 12 25 14 ZZW 1025,8 10
19.10.2018 09:00:00 11,5 5,0 26 14 25 14 Z 1025,7 10
19.10.2018 08:00:00 11,4 5,7 18 10 22 12 Z 1025,9 10
19.10.2018 07:00:00 11,2 5,9 15 8 18 10 ZZW 1026,3 10
19.10.2018 06:00:00 11,3 5,7 15 8 14 8 ZZW 1026,5 10
19.10.2018 05:00:00 11,1 5,0 11 6 11 6 ZZW 1026,7 10
19.10.2018 04:00:00 11,0 5,0 5 3 7 4 WZW 1027,2 10
19.10.2018 03:00:00 11,0 5,1 4 2 7 4 - 1027,4 10
19.10.2018 02:00:00 11,0 5,1 4 2 7 4 - 1027,8 10
19.10.2018 01:00:00 11,0 5,3 4 2 7 4 - 1028,1 10
19.10.2018 00:00:00 11,0 5,1 4 2 11 6 - 1028,2 10
18.10.2018 23:00:00 11,2 5,0 5 3 11 6 - 1028,4 10
18.10.2018 22:00:00 11,3 5,8 9 5 11 6 N 1028,4 10
18.10.2018 21:00:00 11,3 5,5 11 6 14 8 N 1028,2 10
18.10.2018 20:00:00 11,3 6,2 11 6 14 8 N 1028,2 10
18.10.2018 19:00:00 11,3 6,1 13 7 14 8 N 1028,0 10
18.10.2018 18:00:00 11,4 6,4 15 8 18 10 N 1027,8 10
18.10.2018 17:00:00 11,5 6,6 16 9 18 10 N 1027,9 10
18.10.2018 16:00:00 11,6 6,2 11 6 18 10 N 1028,1 49
18.10.2018 15:00:00 11,6 6,5 15 8 18 10 N 1028,1 10
18.10.2018 14:00:00 11,6 6,6 15 8 14 8 NNO 1027,9 10
18.10.2018 13:00:00 11,7 6,9 15 8 25 14 N 1028,1 10
18.10.2018 12:00:00 11,7 7,3 18 10 22 12 N 1028,1 10
18.10.2018 11:00:00 11,7 5,9 18 10 22 12 NNO 1027,4 10
18.10.2018 10:00:00 11,7 6,2 21 11 25 14 NNO 1027,0 10
18.10.2018 09:00:00 11,8 5,5 21 11 25 14 NNO 1026,4 10
18.10.2018 08:00:00 11,9 7,0 21 11 25 14 NNO 1025,8 10
18.10.2018 07:00:00 11,9 8,6 16 9 22 12 NNO 1025,1 10
18.10.2018 06:00:00 11,8 9,0 24 13 29 16 N 1024,6 10
18.10.2018 05:00:00 11,9 9,3 28 15 29 16 N 1024,3 10
18.10.2018 04:00:00 11,9 9,3 24 13 29 16 NNW 1023,9 10
18.10.2018 03:00:00 11,9 9,5 24 13 25 14 NNW 1023,6 10
18.10.2018 02:00:00 11,9 9,4 29 16 29 16 NNW 1023,6 10
18.10.2018 01:00:00 12,0 9,3 34 18 32 18 NNW 1023,1 10
18.10.2018 00:00:00 12,0 10,0 31 17 32 18 NNW 1022,7 10
17.10.2018 23:00:00 12,2 10,2 26 14 25 14 NNW 1022,0 10
17.10.2018 22:00:00 12,2 10,2 24 13 25 14 NNW 1021,8 10
17.10.2018 21:00:00 12,3 10,7 26 14 25 14 NNW 1021,2 10
17.10.2018 20:00:00 12,4 10,7 26 14 25 14 NNW 1020,5 10
17.10.2018 19:00:00 12,4 10,7 16 9 22 12 NNW 1019,8 10
17.10.2018 18:00:00 12,5 10,8 16 9 18 10 NW 1019,2 10
17.10.2018 17:00:00 12,7 10,6 18 10 18 10 NNW 1018,8 10
17.10.2018 16:00:00 12,8 11,1 18 10 22 12 NW 1018,4 10
17.10.2018 15:00:00 12,5 11,3 21 11 - - NW 1018,0 10
17.10.2018 14:00:00 13,0 11,8 18 10 18 10 WNW 1017,6 10
17.10.2018 13:00:00 13,4 12,7 21 11 22 12 WZW 1017,4 8
17.10.2018 12:00:00 13,4 12,8 21 11 22 12 WZW 1017,0 7
17.10.2018 11:00:00 13,5 12,9 24 13 25 14 ZW 1016,6 6
17.10.2018 10:00:00 13,7 13,1 24 13 25 14 ZZW 1016,1 5
17.10.2018 09:00:00 13,6 13,1 24 13 25 14 WZW 1015,4 5
17.10.2018 08:00:00 13,8 13,2 24 13 29 16 ZW 1014,9 7
17.10.2018 07:00:00 14,0 13,3 31 17 29 16 ZW 1014,6 6
17.10.2018 06:00:00 14,1 13,4 29 16 29 16 ZW 1014,2 6
17.10.2018 05:00:00 14,1 14,0 31 17 29 16 ZZW 1013,9 7
17.10.2018 04:00:00 13,2 13,1 24 13 29 16 ZZW 1014,2 0,5
17.10.2018 03:00:00 13,0 13,0 26 14 29 16 ZZW 1014,3 0,5
17.10.2018 02:00:00 13,4 13,3 26 14 29 16 Z 1014,4 0,5
17.10.2018 01:00:00 13,8 13,6 28 15 32 18 ZZW 1014,3 2,0
17.10.2018 00:00:00 13,8 13,3 31 17 32 18 Z 1014,7 4,5
16.10.2018 23:00:00 13,8 13,0 26 14 29 16 Z 1014,8 8
16.10.2018 22:00:00 13,8 12,8 39 21 40 21 ZZW 1014,8 10
16.10.2018 21:00:00 13,6 12,8 41 22 40 21 ZZW 1015,0 10
16.10.2018 20:00:00 13,0 12,5 29 16 36 19 ZZW 1014,7 8
16.10.2018 19:00:00 13,2 12,7 34 18 36 19 ZZW 1014,6 10
16.10.2018 18:00:00 13,5 13,3 24 13 29 16 ZZW 1014,4 6
16.10.2018 17:00:00 13,4 13,4 29 16 29 16 ZZW 1014,6 2,3
16.10.2018 16:00:00 13,7 13,7 28 15 25 14 Z 1015,0 1,3
16.10.2018 15:00:00 13,6 13,5 28 15 29 16 Z 1015,2 2,1
16.10.2018 14:00:00 13,5 13,2 31 17 36 19 Z 1015,5 6
16.10.2018 13:00:00 13,8 12,6 37 20 36 19 ZZO 1015,7 10
16.10.2018 12:00:00 13,2 11,7 35 19 36 19 ZZO 1015,8 10
16.10.2018 11:00:00 12,7 11,0 28 15 32 18 ZO 1016,2 10
16.10.2018 10:00:00 12,3 10,1 24 13 32 18 ZO 1016,1 10
16.10.2018 09:00:00 12,3 9,3 15 8 29 16 - 1016,0 10
16.10.2018 08:00:00 12,2 9,6 22 12 25 14 O 1016,0 10
16.10.2018 07:00:00 12,1 8,8 16 9 29 16 O 1016,4 10
16.10.2018 06:00:00 11,8 8,9 28 15 29 16 O 1016,2 10
16.10.2018 05:00:00 11,5 8,2 24 13 25 14 O 1016,3 10
16.10.2018 04:00:00 11,5 8,1 24 13 25 14 O 1016,4 10
16.10.2018 03:00:00 11,4 7,9 26 14 25 14 O 1016,7 10
16.10.2018 02:00:00 11,2 7,6 28 15 29 16 ONO 1016,6 10
16.10.2018 01:00:00 11,3 8,4 28 15 29 16 ONO 1016,6 10
16.10.2018 00:00:00 11,3 7,7 29 16 29 16 ONO 1016,8 10
15.10.2018 23:00:00 11,1 7,6 31 17 32 18 ONO 1017,0 10
15.10.2018 22:00:00 10,9 7,3 35 19 36 19 ONO 1016,5 10
15.10.2018 21:00:00 10,9 6,6 37 20 40 21 ONO 1016,0 10
15.10.2018 20:00:00 10,8 8,4 39 21 36 19 ONO 1015,7 10
15.10.2018 19:00:00 10,5 7,8 41 22 40 21 ONO 1015,8 10
15.10.2018 18:00:00 10,3 7,2 39 21 40 21 NNO 1015,4 10
15.10.2018 17:00:00 10,9 8,4 42 23 40 21 NO 1014,9 10
15.10.2018 16:00:00 10,7 8,9 39 21 40 21 NNO 1014,9 5
15.10.2018 15:00:00 10,7 9,1 35 19 32 18 NO 1014,7 7
15.10.2018 14:00:00 10,4 9,0 29 16 32 18 NO 1014,6 5
15.10.2018 13:00:00 10,6 9,2 34 18 36 19 NO 1014,4 8
15.10.2018 12:00:00 11,2 8,3 35 19 36 19 NO 1013,7 10
15.10.2018 11:00:00 11,1 8,3 34 18 36 19 NO 1013,7 10
15.10.2018 10:00:00 11,1 8,1 35 19 36 19 NO 1013,6 10
15.10.2018 09:00:00 11,1 7,7 35 19 36 19 NO 1013,1 10
15.10.2018 08:00:00 11,2 7,7 37 20 36 19 NO 1012,9 10
15.10.2018 07:00:00 10,9 7,5 35 19 40 21 NNO 1012,2 10
15.10.2018 06:00:00 11,1 8,0 35 19 40 21 NNO 1011,9 10
15.10.2018 05:00:00 11,2 7,9 35 19 40 21 NNO 1011,6 10
15.10.2018 04:00:00 11,4 8,3 35 19 36 19 NO 1011,6 10
15.10.2018 03:00:00 11,1 8,1 35 19 40 21 NNO 1011,3 10
15.10.2018 02:00:00 10,7 8,8 37 20 43 23 NNO 1010,9 10
15.10.2018 01:00:00 11,1 8,7 41 22 43 23 NNO 1010,4 10
15.10.2018 00:00:00 11,1 9,3 37 20 43 23 NNO 1010,5 10
14.10.2018 23:00:00 10,9 9,4 44 24 47 25 NNO 1009,8 8
14.10.2018 22:00:00 10,9 9,1 42 23 61 33 N 1008,6 10
14.10.2018 21:00:00 10,5 9,5 65 35 65 35 N 1007,6 9
14.10.2018 20:00:00 11,2 10,6 48 26 50 27 N 1006,8 7
14.10.2018 19:00:00 12,2 10,1 52 28 50 27 N 1006,0 10
14.10.2018 18:00:00 12,0 10,3 50 27 50 27 N 1005,1 10
14.10.2018 17:00:00 12,2 11,4 39 21 43 23 N 1005,2 10
14.10.2018 16:00:00 13,2 12,5 29 16 32 18 N 1004,5 10
14.10.2018 15:00:00 14,2 13,6 9 5 11 6 N 1004,7 10

tt = temperatuur
td = dauwpunt
ff = windsnelheid
fx = windstoten
dd = windrichting
ppp = luchtdruk
vv = zicht

Weerstations in de omgeving